Location: Le Hiès Ruisseau
(43.3000°N, 0.4500°W)
Time: 03:10:32
(UTC+00:00)

Cosmos 2322 Rocket - Pass Details

Date: 28 January 2023
Orbit: 831 x 851 km, 71.0° (Epoch: 27 March)

Event Time Altitude Azimuth Distance (km) Brightness Sun altitude
Rises 19:43:50 0° 207° (SSW) 3,363 5.6 -28.4°
Reaches altitude 10° 19:46:16 10° 208° (SSW) 2,432 4.9 -28.8°
Enters shadow 19:51:19 71° 243° (WSW) 880 2.3 -29.7°
